Charlevoix, MI

6:25 AM EST on January 23, 2017 (GMT -0500)
Charlevoix Municipal

Weather History for KCVX - May, 2014

Change the Weather History Date:

Sunday, May 18, 2014

  Actual Average Record
Temperature  
Mean Temperature 54 °F -  
Max Temperature 68 °F 65 °F 79 °F (2012)
Min Temperature 40 °F 48 °F 32 °F (2016)
Degree Days  
Heating Degree Days 11    
Growing Degree Days 4 (Base 50)    
Moisture  
Dew Point 34 °F    
Average Humidity 51    
Maximum Humidity 76    
Minimum Humidity 23    
Precipitation  
Precipitation 0.00 in - - ()
Sea Level Pressure  
Sea Level Pressure 30.13 in    
Wind  
Wind Speed 7 mph (SW)    
Max Wind Speed 15 mph    
Max Gust Speed 23 mph    
Visibility 10 miles    
Events      
Averages and records for this station are not official NWS values.
T = Trace of Precipitation, MM = Missing Value Source: NWS Daily Summary

Daily Weather History Graph

Daily Weather History Graph

Search for Another Location

Airport or City:

Trip Planner

Search our weather history database for the weather conditions in past years. The results will help you decide how hot, cold, wet, or windy it might be!

Date:

Astronomy

May. 18, 2014 Rise Set
Actual Time 6:07 AM EDT 9:07 PM EDT
Civil Twilight 5:32 AM EDT 9:42 PM EDT
Nautical Twilight 4:48 AM EDT 10:27 PM EDT
Astronomical Twilight 3:55 AM EDT 11:21 PM EDT
Moon 12:05 AM EDT (5/18) 9:57 AM EDT (5/18)
Length of Visible Light 16h 09m
Length of Day
15h 00m
Waning Gibbous, 81% of the Moon is Illuminated
May 18
Waning Gibbous
May 21
Last Quarter
May 28
New
Jun 5
First Quarter
Jun 13
Full

Hourly Weather History & Observations

Time (EDT) Temp. Windchill Dew Point Humidity Pressure Visibility Wind Dir Wind Speed Gust Speed Precip Events Conditions
12:14 AM 40.1 °F 36.9 °F 33.1 °F 76% 30.08 in 10.0 mi SE 4.6 mph - N/A   Clear
12:35 AM 44.2 °F 42.7 °F 32.5 °F 63% 30.08 in 10.0 mi SSE 3.5 mph - N/A   Clear
12:55 AM 46.4 °F 43.5 °F 32.0 °F 57% 30.08 in 10.0 mi South 5.8 mph - N/A   Clear
1:14 AM 46.8 °F - 31.8 °F 56% 30.08 in 10.0 mi South 8.1 mph - N/A   Clear
1:35 AM 46.9 °F - 31.5 °F 55% 30.08 in 10.0 mi South 6.9 mph - N/A   Clear
1:54 AM 46.6 °F - 31.3 °F 55% 30.08 in 10.0 mi South 8.1 mph - N/A   Clear
2:15 AM 46.8 °F - 31.3 °F 55% 30.08 in 10.0 mi South 5.8 mph - N/A   Clear
2:35 AM 46.4 °F 44.3 °F 31.5 °F 56% 30.08 in 10.0 mi South 4.6 mph - N/A   Clear
2:54 AM 45.5 °F 42.5 °F 32.0 °F 59% 30.08 in 10.0 mi South 5.8 mph - N/A   Clear
3:15 AM 45.1 °F 42.8 °F 32.0 °F 60% 30.08 in 10.0 mi SSE 4.6 mph - N/A   Clear
3:34 AM 44.6 °F 42.2 °F 32.0 °F 61% 30.08 in 10.0 mi SSE 4.6 mph - N/A   Clear
3:55 AM 45.3 °F 42.3 °F 32.0 °F 60% 30.08 in 10.0 mi South 5.8 mph - N/A   Clear
4:15 AM 45.7 °F 42.7 °F 32.0 °F 59% 30.09 in 10.0 mi South 5.8 mph - N/A   Clear
4:34 AM 45.5 °F 41.8 °F 32.0 °F 59% 30.09 in 10.0 mi South 6.9 mph - N/A   Clear
4:55 AM 44.8 °F 42.4 °F 32.0 °F 61% 30.09 in 10.0 mi SSE 4.6 mph - N/A   Clear
5:15 AM 44.4 °F 42.0 °F 32.0 °F 62% 30.09 in 10.0 mi South 4.6 mph - N/A   Clear
5:34 AM 42.3 °F - 32.0 °F 67% 30.10 in 10.0 mi Calm Calm - N/A   Clear
5:55 AM 41.7 °F 39.8 °F 32.2 °F 69% 30.10 in 10.0 mi East 3.5 mph - N/A   Clear
6:14 AM 41.5 °F - 32.2 °F 69% 30.10 in 10.0 mi Calm Calm - N/A   Clear
6:35 AM 40.6 °F - 32.7 °F 73% 30.12 in 10.0 mi Calm Calm - N/A   Clear
6:55 AM 41.0 °F 39.0 °F 33.3 °F 74% 30.12 in 10.0 mi East 3.5 mph - N/A   Clear
7:15 AM 43.0 °F 41.3 °F 34.5 °F 72% 30.12 in 10.0 mi East 3.5 mph - N/A   Clear
7:35 AM 45.7 °F - 35.2 °F 67% 30.12 in 10.0 mi Calm Calm - N/A   Clear
7:54 AM 49.5 °F - 35.2 °F 58% 30.12 in 10.0 mi South 5.8 mph - N/A   Clear
8:15 AM 50.9 °F - 35.8 °F 56% 30.13 in 10.0 mi SSW 6.9 mph - N/A   Clear
8:35 AM 52.5 °F - 36.0 °F 53% 30.13 in 10.0 mi SSW 9.2 mph - N/A   Clear
8:54 AM 53.6 °F - 36.1 °F 52% 30.13 in 10.0 mi SW 6.9 mph - N/A   Clear
9:15 AM 54.9 °F - 36.5 °F 50% 30.14 in 10.0 mi SSW 11.5 mph - N/A   Clear
9:35 AM 56.7 °F - 37.0 °F 48% 30.14 in 10.0 mi SW 9.2 mph - N/A   Clear
9:54 AM 57.9 °F - 36.9 °F 45% 30.14 in 10.0 mi SSW 12.7 mph - N/A   Clear
10:15 AM 58.1 °F - 36.7 °F 45% 30.14 in 10.0 mi SW 11.5 mph 17.3 mph N/A   Clear
10:35 AM 59.5 °F - 36.7 °F 43% 30.14 in 10.0 mi SW 10.4 mph 16.1 mph N/A   Clear
10:55 AM 60.1 °F - 36.7 °F 42% 30.15 in 10.0 mi WSW 13.8 mph 17.3 mph N/A   Clear
11:15 AM 60.6 °F - 36.9 °F 41% 30.15 in 10.0 mi SW 11.5 mph - N/A   Clear
11:34 AM 61.0 °F - 36.0 °F 39% 30.15 in 10.0 mi SW 15.0 mph 20.7 mph N/A   Clear
11:55 AM 61.7 °F - 35.2 °F 37% 30.15 in 10.0 mi SW 10.4 mph - N/A   Clear
12:15 PM 63.3 °F - 35.1 °F 35% 30.14 in 10.0 mi SW 12.7 mph 19.6 mph N/A   Scattered Clouds
12:34 PM 64.2 °F - 34.3 °F 33% 30.14 in 10.0 mi SSW 13.8 mph 18.4 mph N/A   Scattered Clouds
12:55 PM 64.9 °F - 34.5 °F 32% 30.14 in 10.0 mi SW 12.7 mph 20.7 mph N/A   Mostly Cloudy
1:15 PM 64.2 °F - 34.3 °F 33% 30.14 in 10.0 mi SW 11.5 mph 17.3 mph N/A   Mostly Cloudy
1:34 PM 66.2 °F - 33.3 °F 29% 30.14 in 10.0 mi WSW 13.8 mph 18.4 mph N/A   Mostly Cloudy
1:55 PM 66.4 °F - 30.7 °F 26% 30.13 in 10.0 mi SW 12.7 mph 19.6 mph N/A   Overcast
2:15 PM 67.8 °F - 31.8 °F 26% 30.13 in 10.0 mi WSW 13.8 mph 20.7 mph N/A   Mostly Cloudy
2:35 PM 67.5 °F - 28.6 °F 23% 30.12 in 10.0 mi SSW 12.7 mph 20.7 mph N/A   Scattered Clouds
2:55 PM 67.6 °F - 29.8 °F 24% 30.12 in 10.0 mi SSW 11.5 mph 17.3 mph N/A   Mostly Cloudy
3:14 PM 68.0 °F - 30.0 °F 24% 30.12 in 10.0 mi SW 11.5 mph - N/A   Mostly Cloudy
3:35 PM 66.9 °F - 31.3 °F 27% 30.13 in 10.0 mi WSW 10.4 mph 20.7 mph N/A   Mostly Cloudy
3:55 PM 63.0 °F - 37.2 °F 38% 30.14 in 10.0 mi West 12.7 mph - N/A   Mostly Cloudy
4:14 PM 62.4 °F - 36.3 °F 38% 30.14 in 10.0 mi WSW 10.4 mph - N/A   Mostly Cloudy
4:35 PM 64.2 °F - 36.7 °F 36% 30.14 in 10.0 mi West 8.1 mph - N/A   Scattered Clouds
4:54 PM 64.0 °F - 37.4 °F 37% 30.14 in 10.0 mi West 9.2 mph - N/A   Clear
5:15 PM 62.2 °F - 36.9 °F 39% 30.14 in 10.0 mi West 10.4 mph - N/A   Clear
5:35 PM 61.7 °F - 34.5 °F 36% 30.14 in 10.0 mi West 10.4 mph 16.1 mph N/A   Clear
5:54 PM 62.6 °F - 33.6 °F 34% 30.14 in 10.0 mi WSW 11.5 mph - N/A   Clear
6:15 PM 62.4 °F - 32.9 °F 33% 30.14 in 10.0 mi WSW 11.5 mph - N/A   Scattered Clouds
6:35 PM 62.1 °F - 35.6 °F 37% 30.14 in 10.0 mi WSW 8.1 mph - N/A   Scattered Clouds
6:54 PM 61.3 °F - 35.8 °F 39% 30.14 in 10.0 mi West 4.6 mph - N/A   Clear
7:15 PM 55.4 °F - 35.1 °F 46% 30.14 in 10.0 mi WSW 15.0 mph 23.0 mph N/A   Clear
7:35 PM 52.9 °F - 36.3 °F 53% 30.15 in 10.0 mi WSW 6.9 mph - N/A   Clear
7:55 PM 52.9 °F - 35.1 °F 51% 30.15 in 10.0 mi WSW 4.6 mph - N/A   Clear
8:15 PM 52.7 °F - 35.4 °F 52% 30.15 in 10.0 mi WSW 6.9 mph - N/A   Mostly Cloudy
8:34 PM 53.2 °F - 35.2 °F 51% 30.15 in 10.0 mi West 10.4 mph - N/A   Scattered Clouds
8:55 PM 51.4 °F - 36.0 °F 56% 30.15 in 10.0 mi West 8.1 mph - N/A   Scattered Clouds
9:15 PM 48.7 °F - 36.5 °F 63% 30.15 in 10.0 mi WNW 4.6 mph - N/A   Scattered Clouds
9:34 PM 46.4 °F - 35.6 °F 66% 30.15 in 10.0 mi Calm Calm - N/A   Clear
9:55 PM 47.5 °F - 36.3 °F 65% 30.15 in 10.0 mi Calm Calm - N/A   Clear
10:15 PM 48.4 °F - 37.6 °F 66% 30.15 in 10.0 mi East 3.5 mph - N/A   Clear
10:34 PM 48.0 °F - 36.7 °F 65% 30.15 in 10.0 mi Calm Calm - N/A   Scattered Clouds
10:55 PM 47.3 °F - 37.2 °F 68% 30.15 in 10.0 mi Calm Calm - N/A   Clear
11:15 PM 46.4 °F - 37.6 °F 71% 30.15 in 10.0 mi Calm Calm - N/A   Clear
11:35 PM 46.4 °F - 37.9 °F 72% 30.15 in 10.0 mi Calm Calm - N/A   Clear
11:55 PM 46.6 °F - 38.7 °F 74% 30.15 in 10.0 mi ESE 3.5 mph - N/A   Clear